Time,TemperatureF,DewpointF,PressureIn,WindDirection,WindDirectionDegrees,WindSpeedMPH,WindSpeedGustMPH,Humidity,HourlyPrecipIn,Conditions,Clouds,dailyrainin,SolarRadiationWatts/m^2,SoftwareType,DateUTC
2016-08-25 00:04:00,67.3,65.1,30.16,NNW,347,0.0,0.0,93,0.00,,,0.00,0.0,meteohub,2016-08-25 04:04:00,
2016-08-25 00:09:00,67.3,65.1,30.16,NNW,347,0.0,0.0,93,0.00,,,0.00,0.0,meteohub,2016-08-25 04:09:00,
2016-08-25 00:14:00,67.3,65.1,30.17,NNW,347,0.0,0.0,93,0.00,,,0.00,0.0,meteohub,2016-08-25 04:14:00,
2016-08-25 00:19:00,67.1,64.9,30.17,NNW,347,0.0,0.0,93,0.00,,,0.00,0.0,meteohub,2016-08-25 04:19:00,
2016-08-25 00:24:00,66.9,64.8,30.17,NNW,347,0.0,0.0,93,0.00,,,0.00,0.0,meteohub,2016-08-25 04:24:00,
2016-08-25 00:29:00,66.9,64.8,30.17,NNW,347,0.0,0.0,93,0.00,,,0.00,0.0,meteohub,2016-08-25 04:29:00,
2016-08-25 00:34:00,66.7,64.6,30.17,NNW,347,0.0,0.0,93,0.00,,,0.00,0.0,meteohub,2016-08-25 04:34:00,
2016-08-25 00:39:00,66.7,64.9,30.17,NNW,347,0.0,0.0,94,0.00,,,0.00,0.0,meteohub,2016-08-25 04:39:00,
2016-08-25 00:44:00,66.6,64.8,30.17,NNW,347,0.0,0.0,94,0.00,,,0.00,0.0,meteohub,2016-08-25 04:44:00,
2016-08-25 00:49:00,66.6,64.8,30.17,NNW,347,0.0,0.0,94,0.00,,,0.00,0.0,meteohub,2016-08-25 04:49:00,
2016-08-25 00:54:00,66.6,64.8,30.17,NNW,347,0.0,0.0,94,0.00,,,0.00,0.0,meteohub,2016-08-25 04:54:00,
2016-08-25 01:04:00,66.4,64.6,30.16,NNW,347,0.0,0.0,94,0.00,,,0.00,0.0,meteohub,2016-08-25 05:04:00,
2016-08-25 01:09:00,66.4,64.6,30.16,NNW,347,0.0,0.0,94,0.00,,,0.00,0.0,meteohub,2016-08-25 05:09:00,
2016-08-25 01:14:00,66.4,64.6,30.16,NNW,347,0.0,0.0,94,0.00,,,0.00,0.0,meteohub,2016-08-25 05:14:00,
2016-08-25 01:19:00,66.2,64.4,30.16,NNW,347,0.0,0.0,94,0.00,,,0.00,0.0,meteohub,2016-08-25 05:19:00,
2016-08-25 01:24:00,66.2,64.8,30.16,NNW,347,0.0,0.0,95,0.00,,,0.00,0.0,meteohub,2016-08-25 05:24:00,
2016-08-25 01:29:00,66.2,64.8,30.16,NNW,347,0.0,0.0,95,0.00,,,0.00,0.0,meteohub,2016-08-25 05:29:00,
2016-08-25 01:34:00,66.2,64.8,30.16,NNW,347,0.0,0.0,95,0.00,,,0.00,0.0,meteohub,2016-08-25 05:34:00,
2016-08-25 01:44:00,66.0,64.6,30.15,NNW,347,0.0,0.0,95,0.00,,,0.00,0.0,meteohub,2016-08-25 05:44:00,
2016-08-25 01:49:00,66.0,64.6,30.15,NNW,347,0.0,0.0,95,0.00,,,0.00,0.0,meteohub,2016-08-25 05:49:00,
2016-08-25 01:54:00,66.0,64.6,30.15,NNW,347,0.0,0.0,95,0.00,,,0.00,0.0,meteohub,2016-08-25 05:54:00,
2016-08-25 01:59:00,65.8,64.4,30.15,NNW,347,0.0,0.0,95,0.00,,,0.00,0.0,meteohub,2016-08-25 05:59:00,
2016-08-25 02:04:00,65.8,64.4,30.15,NNW,347,0.0,0.0,95,0.00,,,0.00,0.0,meteohub,2016-08-25 06:04:00,
2016-08-25 02:09:00,65.8,64.4,30.14,NNW,347,0.0,0.0,95,0.00,,,0.00,0.0,meteohub,2016-08-25 06:09:00,
2016-08-25 02:14:00,65.8,64.4,30.14,NNW,347,0.0,0.0,95,0.00,,,0.00,0.0,meteohub,2016-08-25 06:14:00,
2016-08-25 02:19:00,65.7,64.2,30.14,NNW,347,0.0,0.0,95,0.00,,,0.00,0.0,meteohub,2016-08-25 06:19:00,
2016-08-25 02:24:00,65.7,64.2,30.14,NNW,347,0.0,0.0,95,0.00,,,0.00,0.0,meteohub,2016-08-25 06:24:00,
2016-08-25 02:29:00,65.5,64.0,30.14,NNW,347,0.0,0.0,95,0.00,,,0.00,0.0,meteohub,2016-08-25 06:29:00,
2016-08-25 02:35:00,65.5,64.0,30.14,NNW,347,0.0,0.0,95,0.00,,,0.00,0.0,meteohub,2016-08-25 06:35:00,
2016-08-25 02:40:00,65.5,64.0,30.14,NNW,347,0.0,0.0,95,0.00,,,0.00,0.0,meteohub,2016-08-25 06:40:00,
2016-08-25 02:45:00,65.3,63.9,30.14,NNW,347,0.0,0.0,95,0.00,,,0.00,0.0,meteohub,2016-08-25 06:45:00,
2016-08-25 02:50:00,65.1,63.7,30.14,NNW,347,0.0,0.0,95,0.00,,,0.00,0.0,meteohub,2016-08-25 06:50:00,
2016-08-25 03:00:00,65.1,63.7,30.14,NNW,347,0.0,0.0,95,0.00,,,0.00,0.0,meteohub,2016-08-25 07:00:00,
2016-08-25 03:05:00,64.9,63.5,30.14,NNW,347,0.0,0.0,95,0.00,,,0.00,0.0,meteohub,2016-08-25 07:05:00,
2016-08-25 03:10:00,64.9,63.5,30.14,NNW,347,0.0,0.0,95,0.00,,,0.00,0.0,meteohub,2016-08-25 07:10:00,
2016-08-25 03:15:00,64.9,63.5,30.14,NNW,347,0.0,0.0,95,0.00,,,0.00,0.0,meteohub,2016-08-25 07:15:00,
2016-08-25 03:20:00,64.9,63.5,30.14,NNW,347,0.0,0.0,95,0.00,,,0.00,0.0,meteohub,2016-08-25 07:20:00,
2016-08-25 03:25:00,64.9,63.5,30.14,NNW,347,0.0,0.0,95,0.00,,,0.00,0.0,meteohub,2016-08-25 07:25:00,
2016-08-25 03:35:00,64.8,63.3,30.14,NNW,347,0.0,0.0,95,0.00,,,0.00,0.0,meteohub,2016-08-25 07:35:00,
2016-08-25 03:40:00,64.8,63.3,30.14,NNW,347,0.0,0.0,95,0.00,,,0.00,0.0,meteohub,2016-08-25 07:40:00,
2016-08-25 03:45:00,64.8,63.3,30.14,NNW,347,0.0,0.0,95,0.00,,,0.00,0.0,meteohub,2016-08-25 07:45:00,
2016-08-25 03:50:00,64.6,63.1,30.14,NNW,347,0.0,0.0,95,0.00,,,0.00,0.0,meteohub,2016-08-25 07:50:00,
2016-08-25 03:55:00,64.6,63.1,30.14,NNW,347,0.0,0.0,95,0.00,,,0.00,0.0,meteohub,2016-08-25 07:55:00,
2016-08-25 04:00:00,64.6,63.5,30.14,NNW,347,0.0,0.0,96,0.00,,,0.00,0.0,meteohub,2016-08-25 08:00:00,
2016-08-25 04:05:00,64.6,63.5,30.14,NNW,347,0.0,0.0,96,0.00,,,0.00,0.0,meteohub,2016-08-25 08:05:00,
2016-08-25 04:10:00,64.6,63.5,30.13,NNW,347,0.0,0.0,96,0.00,,,0.00,0.0,meteohub,2016-08-25 08:10:00,
2016-08-25 04:15:00,64.6,63.5,30.13,NNW,347,0.0,0.0,96,0.00,,,0.00,0.0,meteohub,2016-08-25 08:15:00,
2016-08-25 04:20:00,64.6,63.5,30.13,NNW,347,0.0,0.0,96,0.00,,,0.00,0.0,meteohub,2016-08-25 08:20:00,
2016-08-25 04:25:00,64.6,63.5,30.13,NNW,347,0.0,0.0,96,0.00,,,0.00,0.0,meteohub,2016-08-25 08:25:00,
2016-08-25 04:30:00,64.6,63.5,30.13,NNW,347,0.0,0.0,96,0.00,,,0.00,0.0,meteohub,2016-08-25 08:30:00,
2016-08-25 04:35:00,64.6,63.5,30.13,NNW,347,0.0,0.0,96,0.00,,,0.00,0.0,meteohub,2016-08-25 08:35:00,
2016-08-25 04:40:00,64.4,63.3,30.13,NNW,347,0.0,0.0,96,0.00,,,0.00,0.0,meteohub,2016-08-25 08:40:00,
2016-08-25 04:45:00,64.4,63.3,30.13,NNW,347,0.0,0.0,96,0.00,,,0.00,0.0,meteohub,2016-08-25 08:45:00,
2016-08-25 04:50:00,64.4,63.3,30.12,NNW,347,0.0,0.0,96,0.00,,,0.00,0.0,meteohub,2016-08-25 08:50:00,
2016-08-25 04:55:00,64.4,63.3,30.12,NNW,347,0.0,0.0,96,0.00,,,0.00,0.0,meteohub,2016-08-25 08:55:00,
2016-08-25 05:00:00,64.4,63.3,30.12,NNW,347,0.0,0.0,96,0.00,,,0.00,0.0,meteohub,2016-08-25 09:00:00,
2016-08-25 05:05:00,64.4,63.3,30.12,NNW,347,0.0,0.0,96,0.00,,,0.00,0.0,meteohub,2016-08-25 09:05:00,
2016-08-25 05:10:00,64.4,63.3,30.12,NNW,347,0.0,0.0,96,0.00,,,0.00,0.0,meteohub,2016-08-25 09:10:00,
2016-08-25 05:15:00,64.4,63.3,30.13,NNW,347,0.0,0.0,96,0.00,,,0.00,0.0,meteohub,2016-08-25 09:15:00,
2016-08-25 05:20:00,64.2,63.1,30.13,NNW,347,0.0,0.0,96,0.00,,,0.00,0.0,meteohub,2016-08-25 09:20:00,
2016-08-25 05:25:00,64.2,63.1,30.13,NNW,347,0.0,0.0,96,0.00,,,0.00,0.0,meteohub,2016-08-25 09:25:00,
2016-08-25 05:30:00,64.2,63.1,30.13,NNW,347,0.0,0.0,96,0.00,,,0.00,0.0,meteohub,2016-08-25 09:30:00,
2016-08-25 05:35:00,64.2,63.1,30.13,NNW,347,0.0,0.0,96,0.00,,,0.00,0.0,meteohub,2016-08-25 09:35:00,
2016-08-25 05:40:00,64.4,63.3,30.13,NNW,347,0.0,0.0,96,0.00,,,0.00,0.0,meteohub,2016-08-25 09:40:00,
2016-08-25 05:45:00,64.4,63.3,30.13,NNW,347,0.0,0.0,96,0.00,,,0.00,0.0,meteohub,2016-08-25 09:45:00,
2016-08-25 05:50:00,64.4,63.3,30.13,NNW,347,0.0,0.0,96,0.00,,,0.00,0.0,meteohub,2016-08-25 09:50:00,
2016-08-25 05:55:00,64.6,63.5,30.13,NNW,347,0.0,0.0,96,0.00,,,0.00,0.0,meteohub,2016-08-25 09:55:00,
2016-08-25 06:00:00,64.4,63.3,30.13,NNW,347,0.0,0.0,96,0.00,,,0.00,0.0,meteohub,2016-08-25 10:00:00,
2016-08-25 06:05:00,64.4,63.3,30.14,NNW,347,0.0,0.0,96,0.00,,,0.00,0.0,meteohub,2016-08-25 10:05:00,
2016-08-25 06:11:00,64.2,63.1,30.14,NNW,347,0.0,0.0,96,0.00,,,0.00,0.0,meteohub,2016-08-25 10:11:00,
2016-08-25 06:16:00,64.4,63.3,30.13,NNW,347,0.0,0.0,96,0.00,,,0.00,0.0,meteohub,2016-08-25 10:16:00,
2016-08-25 06:21:00,64.2,63.1,30.13,NNW,347,0.0,0.0,96,0.00,,,0.00,0.0,meteohub,2016-08-25 10:21:00,
2016-08-25 06:26:00,64.4,63.3,30.14,NNW,347,0.0,0.0,96,0.00,,,0.00,0.0,meteohub,2016-08-25 10:26:00,
2016-08-25 06:31:00,64.4,63.3,30.14,NNW,347,0.0,0.0,96,0.00,,,0.00,0.0,meteohub,2016-08-25 10:31:00,
2016-08-25 06:36:00,64.4,63.3,30.14,NNW,347,0.0,0.0,96,0.00,,,0.00,5.0,meteohub,2016-08-25 10:36:00,
2016-08-25 06:41:00,64.6,63.7,30.14,NNW,347,0.0,0.0,97,0.00,,,0.00,7.0,meteohub,2016-08-25 10:41:00,
2016-08-25 06:46:00,64.6,63.7,30.13,NNW,347,0.0,0.0,97,0.00,,,0.00,14.0,meteohub,2016-08-25 10:46:00,
2016-08-25 06:51:00,64.6,63.7,30.13,NNW,347,0.0,0.0,97,0.00,,,0.00,23.0,meteohub,2016-08-25 10:51:00,
2016-08-25 06:56:00,64.8,63.9,30.13,NNW,347,0.0,0.0,97,0.00,,,0.00,33.0,meteohub,2016-08-25 10:56:00,
2016-08-25 07:01:00,64.9,64.0,30.13,NNW,347,0.0,0.0,97,0.00,,,0.00,42.0,meteohub,2016-08-25 11:01:00,
2016-08-25 07:06:00,65.1,64.2,30.13,NNW,347,0.0,0.0,97,0.00,,,0.00,51.0,meteohub,2016-08-25 11:06:00,
2016-08-25 07:11:00,65.5,64.6,30.13,NNW,347,0.0,0.0,97,0.00,,,0.00,58.0,meteohub,2016-08-25 11:11:00,
2016-08-25 07:21:00,65.8,64.9,30.13,NNW,347,0.0,0.0,97,0.00,,,0.00,72.0,meteohub,2016-08-25 11:21:00,
2016-08-25 07:26:00,66.0,65.1,30.13,NNW,347,0.0,1.0,97,0.00,,,0.00,74.0,meteohub,2016-08-25 11:26:00,
2016-08-25 07:31:00,66.4,65.5,30.13,NNW,347,0.0,2.0,97,0.00,,,0.00,77.0,meteohub,2016-08-25 11:31:00,
2016-08-25 07:36:00,66.7,65.8,30.13,NW,320,0.0,2.0,97,0.00,,,0.00,79.0,meteohub,2016-08-25 11:36:00,
2016-08-25 07:41:00,66.9,66.0,30.13,NW,326,0.0,2.0,97,0.00,,,0.00,79.0,meteohub,2016-08-25 11:41:00,
2016-08-25 07:46:00,67.1,66.2,30.12,West,265,0.0,2.0,97,0.00,,,0.00,72.0,meteohub,2016-08-25 11:46:00,
2016-08-25 07:51:00,67.3,66.4,30.12,West,265,0.0,2.0,97,0.00,,,0.00,69.0,meteohub,2016-08-25 11:51:00,
2016-08-25 07:56:00,67.5,66.6,30.12,West,265,0.0,2.0,97,0.00,,,0.00,74.0,meteohub,2016-08-25 11:56:00,
2016-08-25 08:06:00,68.2,67.3,30.12,West,267,0.0,2.0,97,0.00,,,0.00,102.0,meteohub,2016-08-25 12:06:00,
2016-08-25 08:11:00,68.4,67.5,30.12,SW,236,2.0,2.0,97,0.00,,,0.00,123.0,meteohub,2016-08-25 12:11:00,
2016-08-25 08:16:00,69.1,68.2,30.12,WNW,283,0.0,3.0,97,0.00,,,0.00,120.0,meteohub,2016-08-25 12:16:00,
2016-08-25 08:21:00,69.4,68.5,30.12,NW,313,3.0,3.0,97,0.00,,,0.00,137.0,meteohub,2016-08-25 12:21:00,
2016-08-25 08:26:00,70.2,68.9,30.12,NNW,332,0.0,9.0,96,0.00,,,0.00,186.0,meteohub,2016-08-25 12:26:00,
2016-08-25 08:31:00,70.5,69.1,30.12,WNW,284,0.0,9.0,95,0.00,,,0.00,125.0,meteohub,2016-08-25 12:31:00,
2016-08-25 08:36:00,70.9,69.1,30.12,WNW,289,0.0,9.0,94,0.00,,,0.00,130.0,meteohub,2016-08-25 12:36:00,
2016-08-25 08:41:00,71.2,69.1,30.12,WNW,283,0.0,5.0,93,0.00,,,0.00,237.0,meteohub,2016-08-25 12:41:00,
2016-08-25 08:47:00,71.8,69.3,30.12,West,274,0.0,5.0,92,0.00,,,0.00,239.0,meteohub,2016-08-25 12:47:00,
2016-08-25 08:52:00,72.1,69.4,30.12,ENE,72,0.0,5.0,91,0.00,,,0.00,264.0,meteohub,2016-08-25 12:52:00,
2016-08-25 08:57:00,72.5,69.4,30.12,WNW,296,0.0,5.0,90,0.00,,,0.00,250.0,meteohub,2016-08-25 12:57:00,
2016-08-25 09:07:00,73.8,70.3,30.12,West,260,0.0,3.0,89,0.00,,,0.00,304.0,meteohub,2016-08-25 13:07:00,
2016-08-25 09:12:00,74.5,70.7,30.12,South,179,0.0,3.0,88,0.00,,,0.00,364.0,meteohub,2016-08-25 13:12:00,
2016-08-25 09:17:00,75.0,70.5,30.12,WNW,302,1.0,3.0,86,0.00,,,0.00,475.0,meteohub,2016-08-25 13:17:00,
2016-08-25 09:22:00,75.9,70.7,30.12,ENE,72,2.0,7.0,84,0.00,,,0.00,504.0,meteohub,2016-08-25 13:22:00,
2016-08-25 09:27:00,76.6,71.4,30.12,ENE,62,3.0,7.0,84,0.00,,,0.00,468.0,meteohub,2016-08-25 13:27:00,
2016-08-25 09:32:00,77.4,70.7,30.12,WSW,239,3.0,7.0,80,0.00,,,0.00,441.0,meteohub,2016-08-25 13:32:00,
2016-08-25 09:37:00,77.2,71.6,30.12,WNW,286,3.0,7.0,83,0.00,,,0.00,383.0,meteohub,2016-08-25 13:37:00,
2016-08-25 09:42:00,77.2,71.2,30.12,WNW,291,1.0,7.0,82,0.00,,,0.00,388.0,meteohub,2016-08-25 13:42:00,
2016-08-25 09:47:00,77.5,71.6,30.12,West,269,0.0,7.0,82,0.00,,,0.00,434.0,meteohub,2016-08-25 13:47:00,
2016-08-25 09:52:00,78.1,71.4,30.12,NW,308,5.0,5.0,80,0.00,,,0.00,443.0,meteohub,2016-08-25 13:52:00,
2016-08-25 09:57:00,78.3,71.2,30.12,NW,308,1.0,8.0,79,0.00,,,0.00,559.0,meteohub,2016-08-25 13:57:00,
2016-08-25 10:02:00,78.4,71.8,30.12,NNW,341,5.0,8.0,80,0.00,,,0.00,424.0,meteohub,2016-08-25 14:02:00,
2016-08-25 10:07:00,78.6,71.6,30.11,NNE,17,1.0,8.0,79,0.00,,,0.00,578.0,meteohub,2016-08-25 14:07:00,
2016-08-25 10:12:00,79.0,72.0,30.11,NE,41,0.0,8.0,79,0.00,,,0.00,675.0,meteohub,2016-08-25 14:12:00,
2016-08-25 10:17:00,79.9,72.0,30.11,NW,305,4.0,6.0,77,0.00,,,0.00,624.0,meteohub,2016-08-25 14:17:00,
2016-08-25 10:22:00,80.2,71.6,30.11,SW,233,2.0,8.0,75,0.00,,,0.00,652.0,meteohub,2016-08-25 14:22:00,
2016-08-25 10:27:00,80.6,73.0,30.11,SSE,153,0.0,8.0,78,0.00,,,0.00,642.0,meteohub,2016-08-25 14:27:00,
2016-08-25 10:32:00,81.0,72.7,30.11,SW,221,1.0,8.0,76,0.00,,,0.00,663.0,meteohub,2016-08-25 14:32:00,
2016-08-25 10:37:00,81.1,72.5,30.11,NNW,333,0.0,8.0,75,0.00,,,0.00,496.0,meteohub,2016-08-25 14:37:00,
2016-08-25 10:42:00,81.1,72.9,30.11,WNW,283,1.0,8.0,76,0.00,,,0.00,452.0,meteohub,2016-08-25 14:42:00,
2016-08-25 10:47:00,81.1,72.9,30.11,West,274,2.0,7.0,76,0.00,,,0.00,612.0,meteohub,2016-08-25 14:47:00,
2016-08-25 10:52:00,81.3,73.0,30.11,West,278,4.0,7.0,76,0.00,,,0.00,506.0,meteohub,2016-08-25 14:52:00,
2016-08-25 10:57:00,81.1,74.3,30.11,West,278,0.0,7.0,80,0.00,,,0.00,578.0,meteohub,2016-08-25 14:57:00,
2016-08-25 11:02:00,81.3,73.0,30.10,WSW,255,7.0,7.0,76,0.00,,,0.00,522.0,meteohub,2016-08-25 15:02:00,
2016-08-25 11:07:00,81.7,74.1,30.10,NNE,28,1.0,8.0,78,0.00,,,0.00,548.0,meteohub,2016-08-25 15:07:00,
2016-08-25 11:12:00,81.7,73.4,30.10,ENE,59,2.0,8.0,76,0.00,,,0.00,659.0,meteohub,2016-08-25 15:12:00,
2016-08-25 11:17:00,82.0,74.1,30.10,NNW,339,0.0,8.0,77,0.00,,,0.00,621.0,meteohub,2016-08-25 15:17:00,
2016-08-25 11:22:00,82.6,75.0,30.10,NW,323,0.0,6.0,78,0.00,,,0.00,673.0,meteohub,2016-08-25 15:22:00,
2016-08-25 11:27:00,82.9,75.7,30.10,WNW,294,1.0,6.0,79,0.00,,,0.00,693.0,meteohub,2016-08-25 15:27:00,
2016-08-25 11:32:00,83.1,75.6,30.10,NNE,32,0.0,6.0,78,0.00,,,0.00,724.0,meteohub,2016-08-25 15:32:00,
2016-08-25 11:37:00,83.5,75.6,30.10,NNW,330,1.0,8.0,77,0.00,,,0.00,759.0,meteohub,2016-08-25 15:37:00,
2016-08-25 11:42:00,83.1,73.9,30.09,NNW,347,0.0,9.0,74,0.00,,,0.00,527.0,meteohub,2016-08-25 15:42:00,
2016-08-25 11:47:00,83.1,73.9,30.09,North,10,2.0,9.0,74,0.00,,,0.00,594.0,meteohub,2016-08-25 15:47:00,
2016-08-25 11:52:00,83.5,74.3,30.09,WNW,290,2.0,9.0,74,0.00,,,0.00,893.0,meteohub,2016-08-25 15:52:00,
2016-08-25 11:57:00,84.0,73.9,30.09,SW,235,1.0,7.0,72,0.00,,,0.00,540.0,meteohub,2016-08-25 15:57:00,
2016-08-25 12:02:00,83.8,74.3,30.09,WSW,238,0.0,6.0,73,0.00,,,0.00,728.0,meteohub,2016-08-25 16:02:00,
2016-08-25 12:12:00,84.4,74.8,30.09,SW,214,2.0,7.0,73,0.00,,,0.00,705.0,meteohub,2016-08-25 16:12:00,
2016-08-25 12:17:00,84.6,74.5,30.09,WSW,253,6.0,7.0,72,0.00,,,0.00,578.0,meteohub,2016-08-25 16:17:00,
2016-08-25 12:22:00,84.4,73.9,30.09,West,263,4.0,7.0,71,0.00,,,0.00,615.0,meteohub,2016-08-25 16:22:00,
2016-08-25 12:32:00,84.4,74.8,30.09,WSW,251,1.0,7.0,73,0.00,,,0.00,694.0,meteohub,2016-08-25 16:32:00,
2016-08-25 12:37:00,84.4,74.3,30.09,SSW,203,2.0,7.0,72,0.00,,,0.00,735.0,meteohub,2016-08-25 16:37:00,
2016-08-25 12:42:00,84.6,74.5,30.09,West,263,0.0,6.0,72,0.00,,,0.00,744.0,meteohub,2016-08-25 16:42:00,
2016-08-25 12:47:00,85.1,75.4,30.08,WNW,288,1.0,6.0,73,0.00,,,0.00,668.0,meteohub,2016-08-25 16:47:00,
2016-08-25 12:52:00,85.5,77.7,30.08,SW,219,0.0,5.0,78,0.00,,,0.00,722.0,meteohub,2016-08-25 16:52:00,
2016-08-25 12:57:00,84.7,75.9,30.07,NNE,22,0.0,5.0,75,0.00,,,0.00,610.0,meteohub,2016-08-25 16:57:00,
2016-08-25 13:02:00,84.7,75.2,30.07,West,272,1.0,7.0,73,0.00,,,0.00,561.0,meteohub,2016-08-25 17:02:00,
2016-08-25 13:07:00,84.9,74.8,30.07,West,278,2.0,7.0,72,0.00,,,0.00,613.0,meteohub,2016-08-25 17:07:00,
2016-08-25 13:12:00,85.6,75.6,30.07,WNW,289,5.0,7.0,72,0.00,,,0.00,751.0,meteohub,2016-08-25 17:12:00,
2016-08-25 13:17:00,85.8,75.4,30.07,NE,34,1.0,7.0,71,0.00,,,0.00,712.0,meteohub,2016-08-25 17:17:00,
2016-08-25 13:22:00,86.4,77.0,30.07,NW,323,0.0,7.0,74,0.00,,,0.00,789.0,meteohub,2016-08-25 17:22:00,
2016-08-25 13:27:00,86.7,76.1,30.06,NW,307,6.0,7.0,71,0.00,,,0.00,775.0,meteohub,2016-08-25 17:27:00,
2016-08-25 13:32:00,86.7,75.7,30.06,West,263,3.0,7.0,70,0.00,,,0.00,819.0,meteohub,2016-08-25 17:32:00,
2016-08-25 13:37:00,86.9,76.3,30.06,NNW,340,0.0,7.0,71,0.00,,,0.00,652.0,meteohub,2016-08-25 17:37:00,
2016-08-25 13:42:00,87.1,76.5,30.06,NNE,18,0.0,7.0,71,0.00,,,0.00,814.0,meteohub,2016-08-25 17:42:00,
2016-08-25 13:47:00,87.1,76.1,30.06,ENE,69,0.0,7.0,70,0.00,,,0.00,865.0,meteohub,2016-08-25 17:47:00,
2016-08-25 13:52:00,87.3,76.6,30.06,NW,304,5.0,5.0,71,0.00,,,0.00,856.0,meteohub,2016-08-25 17:52:00,
2016-08-25 13:57:00,87.6,78.3,30.06,SW,234,5.0,6.0,74,0.00,,,0.00,854.0,meteohub,2016-08-25 17:57:00,
2016-08-25 14:07:00,88.2,76.6,30.05,North,352,0.0,6.0,69,0.00,,,0.00,840.0,meteohub,2016-08-25 18:07:00,
2016-08-25 14:12:00,88.3,77.4,30.05,ENE,64,0.0,5.0,70,0.00,,,0.00,840.0,meteohub,2016-08-25 18:12:00,
2016-08-25 14:17:00,88.2,76.3,30.05,NW,311,1.0,4.0,68,0.00,,,0.00,758.0,meteohub,2016-08-25 18:17:00,
2016-08-25 14:22:00,88.5,77.5,30.05,ENE,61,0.0,5.0,70,0.00,,,0.00,877.0,meteohub,2016-08-25 18:22:00,
2016-08-25 14:27:00,88.5,78.3,30.05,WNW,282,1.0,5.0,72,0.00,,,0.00,795.0,meteohub,2016-08-25 18:27:00,
2016-08-25 14:32:00,88.9,76.1,30.05,West,262,0.0,7.0,66,0.00,,,0.00,807.0,meteohub,2016-08-25 18:32:00,
2016-08-25 14:37:00,88.5,77.5,30.04,NNW,347,1.0,7.0,70,0.00,,,0.00,796.0,meteohub,2016-08-25 18:37:00,
2016-08-25 14:42:00,88.7,76.8,30.04,SSE,156,1.0,7.0,68,0.00,,,0.00,780.0,meteohub,2016-08-25 18:42:00,
2016-08-25 14:47:00,88.5,76.6,30.04,ENE,67,2.0,7.0,68,0.00,,,0.00,779.0,meteohub,2016-08-25 18:47:00,
2016-08-25 14:52:00,88.9,77.4,30.04,WNW,286,3.0,7.0,69,0.00,,,0.00,809.0,meteohub,2016-08-25 18:52:00,
2016-08-25 14:57:00,89.2,76.5,30.04,WNW,303,3.0,7.0,66,0.00,,,0.00,812.0,meteohub,2016-08-25 18:57:00,
2016-08-25 15:02:00,89.2,78.6,30.04,WNW,292,4.0,5.0,71,0.00,,,0.00,547.0,meteohub,2016-08-25 19:02:00,
2016-08-25 15:07:00,89.1,77.2,30.04,WNW,301,3.0,5.0,68,0.00,,,0.00,735.0,meteohub,2016-08-25 19:07:00,
2016-08-25 15:12:00,89.1,76.3,30.04,NW,318,2.0,7.0,66,0.00,,,0.00,728.0,meteohub,2016-08-25 19:12:00,
2016-08-25 15:17:00,89.2,77.4,30.04,West,270,3.0,7.0,68,0.00,,,0.00,728.0,meteohub,2016-08-25 19:17:00,
2016-08-25 15:22:00,89.2,77.4,30.03,WSW,249,3.0,7.0,68,0.00,,,0.00,772.0,meteohub,2016-08-25 19:22:00,
2016-08-25 15:27:00,89.4,79.2,30.03,WSW,254,0.0,7.0,72,0.00,,,0.00,779.0,meteohub,2016-08-25 19:27:00,
2016-08-25 15:37:00,90.0,77.9,30.03,North,8,1.0,7.0,68,0.00,,,0.00,671.0,meteohub,2016-08-25 19:37:00,
2016-08-25 15:43:00,89.8,77.4,30.03,WSW,257,3.0,7.0,67,0.00,,,0.00,656.0,meteohub,2016-08-25 19:43:00,
2016-08-25 15:48:00,90.0,77.5,30.03,West,262,0.0,7.0,67,0.00,,,0.00,598.0,meteohub,2016-08-25 19:48:00,
2016-08-25 15:53:00,90.0,79.3,30.03,West,271,3.0,5.0,71,0.00,,,0.00,601.0,meteohub,2016-08-25 19:53:00,
2016-08-25 15:58:00,90.0,78.8,30.02,SW,229,0.0,4.0,70,0.00,,,0.00,452.0,meteohub,2016-08-25 19:58:00,
2016-08-25 16:03:00,88.9,77.9,30.02,WNW,286,0.0,6.0,70,0.00,,,0.00,325.0,meteohub,2016-08-25 20:03:00,
2016-08-25 16:08:00,88.9,78.3,30.02,WNW,288,3.0,6.0,71,0.00,,,0.00,408.0,meteohub,2016-08-25 20:08:00,
2016-08-25 16:13:00,88.9,78.6,30.02,West,262,0.0,6.0,72,0.00,,,0.00,439.0,meteohub,2016-08-25 20:13:00,
2016-08-25 16:18:00,88.3,76.8,30.02,NW,304,0.0,6.0,69,0.00,,,0.00,360.0,meteohub,2016-08-25 20:18:00,
2016-08-25 16:23:00,87.6,77.9,30.02,West,263,0.0,6.0,73,0.00,,,0.00,480.0,meteohub,2016-08-25 20:23:00,
2016-08-25 16:28:00,87.3,78.4,30.02,West,280,0.0,4.0,75,0.00,,,0.00,436.0,meteohub,2016-08-25 20:28:00,
2016-08-25 16:33:00,87.3,78.4,30.02,SW,234,0.0,5.0,75,0.00,,,0.00,346.0,meteohub,2016-08-25 20:33:00,
2016-08-25 16:38:00,87.4,78.1,30.02,WSW,253,0.0,5.0,74,0.00,,,0.00,318.0,meteohub,2016-08-25 20:38:00,
2016-08-25 16:43:00,87.4,78.1,30.02,SW,226,0.0,5.0,74,0.00,,,0.00,345.0,meteohub,2016-08-25 20:43:00,
2016-08-25 16:48:00,86.7,78.6,30.02,SW,226,0.0,3.0,77,0.00,,,0.00,225.0,meteohub,2016-08-25 20:48:00,
2016-08-25 16:53:00,86.0,78.8,30.02,SW,226,0.0,2.0,79,0.00,,,0.00,343.0,meteohub,2016-08-25 20:53:00,
2016-08-25 16:58:00,86.2,78.4,30.02,North,11,0.0,1.0,78,0.00,,,0.00,387.0,meteohub,2016-08-25 20:58:00,
2016-08-25 17:03:00,86.2,79.0,30.02,North,11,0.0,2.0,79,0.00,,,0.00,302.0,meteohub,2016-08-25 21:03:00,
2016-08-25 17:08:00,86.4,79.5,30.02,NNW,336,0.0,2.0,80,0.00,,,0.00,413.0,meteohub,2016-08-25 21:08:00,
2016-08-25 17:13:00,86.2,79.0,30.02,NNW,336,0.0,2.0,79,0.00,,,0.00,434.0,meteohub,2016-08-25 21:13:00,
2016-08-25 17:18:00,86.4,79.0,30.02,WNW,294,0.0,1.0,79,0.00,,,0.00,431.0,meteohub,2016-08-25 21:18:00,
2016-08-25 17:23:00,86.7,78.6,30.02,West,268,0.0,3.0,77,0.00,,,0.00,406.0,meteohub,2016-08-25 21:23:00,
2016-08-25 17:28:00,87.1,79.7,30.02,West,268,0.0,3.0,79,0.00,,,0.00,381.0,meteohub,2016-08-25 21:28:00,
2016-08-25 17:33:00,87.8,79.3,30.02,WNW,290,0.0,3.0,76,0.00,,,0.00,359.0,meteohub,2016-08-25 21:33:00,
2016-08-25 17:38:00,88.2,79.7,30.02,WNW,290,0.0,2.0,76,0.00,,,0.00,341.0,meteohub,2016-08-25 21:38:00,
2016-08-25 17:43:00,88.0,79.0,30.02,WNW,290,0.0,2.0,75,0.00,,,0.00,325.0,meteohub,2016-08-25 21:43:00,
2016-08-25 17:48:00,88.0,79.0,30.02,South,180,0.0,2.0,75,0.00,,,0.00,302.0,meteohub,2016-08-25 21:48:00,
2016-08-25 17:53:00,87.6,78.6,30.01,South,180,0.0,2.0,75,0.00,,,0.00,274.0,meteohub,2016-08-25 21:53:00,
2016-08-25 17:58:00,87.1,79.0,30.01,South,180,0.0,2.0,77,0.00,,,0.00,265.0,meteohub,2016-08-25 21:58:00,
2016-08-25 18:03:00,86.4,79.0,30.01,South,180,0.0,2.0,79,0.00,,,0.00,251.0,meteohub,2016-08-25 22:03:00,
2016-08-25 18:13:00,86.2,79.0,30.01,South,180,0.0,0.0,79,0.00,,,0.00,218.0,meteohub,2016-08-25 22:13:00,
2016-08-25 18:18:00,86.4,79.9,30.01,South,179,0.0,0.0,81,0.00,,,0.00,197.0,meteohub,2016-08-25 22:18:00,
2016-08-25 18:23:00,86.2,79.3,30.01,South,179,0.0,0.0,80,0.00,,,0.00,181.0,meteohub,2016-08-25 22:23:00,
2016-08-25 18:28:00,85.8,79.0,30.01,South,180,0.0,0.0,80,0.00,,,0.00,148.0,meteohub,2016-08-25 22:28:00,
2016-08-25 18:33:00,85.8,79.0,30.01,South,180,0.0,0.0,80,0.00,,,0.00,149.0,meteohub,2016-08-25 22:33:00,
2016-08-25 18:49:00,86.2,79.3,30.01,South,179,0.0,0.0,80,0.00,,,0.00,46.0,meteohub,2016-08-25 22:49:00,
2016-08-25 18:54:00,85.8,79.0,30.01,South,179,0.0,0.0,80,0.00,,,0.00,37.0,meteohub,2016-08-25 22:54:00,
2016-08-25 19:04:00,84.7,78.6,30.01,South,179,0.0,0.0,82,0.00,,,0.00,30.0,meteohub,2016-08-25 23:04:00,
2016-08-25 19:09:00,84.6,78.4,30.01,South,179,0.0,0.0,82,0.00,,,0.00,23.0,meteohub,2016-08-25 23:09:00,
2016-08-25 19:14:00,84.2,78.4,30.02,South,179,0.0,0.0,83,0.00,,,0.00,16.0,meteohub,2016-08-25 23:14:00,
2016-08-25 19:19:00,83.8,78.4,30.02,South,179,0.0,0.0,84,0.00,,,0.00,16.0,meteohub,2016-08-25 23:19:00,
2016-08-25 19:24:00,83.5,78.4,30.02,South,179,0.0,0.0,85,0.00,,,0.00,14.0,meteohub,2016-08-25 23:24:00,
2016-08-25 19:34:00,82.8,78.1,30.02,South,179,0.0,0.0,86,0.00,,,0.00,9.0,meteohub,2016-08-25 23:34:00,
2016-08-25 19:39:00,82.4,77.7,30.02,South,179,0.0,0.0,86,0.00,,,0.00,5.0,meteohub,2016-08-25 23:39:00,
2016-08-25 19:44:00,82.0,77.7,30.01,South,179,0.0,0.0,87,0.00,,,0.00,0.0,meteohub,2016-08-25 23:44:00,
2016-08-25 19:49:00,81.9,77.5,30.02,South,180,0.0,0.0,87,0.00,,,0.00,0.0,meteohub,2016-08-25 23:49:00,
2016-08-25 19:54:00,81.7,77.4,30.01,South,179,0.0,0.0,87,0.00,,,0.00,0.0,meteohub,2016-08-25 23:54:00,
2016-08-25 19:59:00,81.3,77.4,30.01,South,180,0.0,0.0,88,0.00,,,0.00,0.0,meteohub,2016-08-25 23:59:00,
2016-08-25 20:04:00,81.1,77.2,30.02,South,180,0.0,0.0,88,0.00,,,0.00,0.0,meteohub,2016-08-26 00:04:00,
2016-08-25 20:09:00,81.0,77.0,30.02,South,179,0.0,0.0,88,0.00,,,0.00,0.0,meteohub,2016-08-26 00:09:00,
2016-08-25 20:14:00,80.8,77.2,30.02,South,179,0.0,0.0,89,0.00,,,0.00,0.0,meteohub,2016-08-26 00:14:00,
2016-08-25 20:19:00,80.4,76.8,30.02,South,179,0.0,0.0,89,0.00,,,0.00,0.0,meteohub,2016-08-26 00:19:00,
2016-08-25 20:24:00,80.1,76.5,30.03,South,179,0.0,0.0,89,0.00,,,0.00,0.0,meteohub,2016-08-26 00:24:00,
2016-08-25 20:31:00,80.1,76.8,30.03,South,179,0.0,0.0,90,0.00,,,0.00,0.0,meteohub,2016-08-26 00:31:00,
2016-08-25 20:36:00,79.7,76.5,30.03,South,179,0.0,0.0,90,0.00,,,0.00,0.0,meteohub,2016-08-26 00:36:00,
2016-08-25 20:41:00,79.5,76.3,30.03,South,179,0.0,0.0,90,0.00,,,0.00,0.0,meteohub,2016-08-26 00:41:00,
2016-08-25 20:46:00,79.3,76.1,30.03,South,179,0.0,0.0,90,0.00,,,0.00,0.0,meteohub,2016-08-26 00:46:00,
2016-08-25 20:51:00,79.3,76.5,30.03,South,180,0.0,0.0,91,0.00,,,0.00,0.0,meteohub,2016-08-26 00:51:00,
2016-08-25 20:56:00,79.2,76.3,30.03,South,179,0.0,0.0,91,0.00,,,0.00,0.0,meteohub,2016-08-26 00:56:00,
2016-08-25 21:01:00,79.0,76.1,30.03,South,180,0.0,0.0,91,0.00,,,0.00,0.0,meteohub,2016-08-26 01:01:00,
2016-08-25 21:06:00,78.8,76.3,30.03,South,179,0.0,0.0,92,0.00,,,0.00,0.0,meteohub,2016-08-26 01:06:00,
2016-08-25 21:21:00,78.4,75.9,30.03,South,179,0.0,0.0,92,0.00,,,0.00,0.0,meteohub,2016-08-26 01:21:00,
2016-08-25 21:32:00,78.3,76.1,30.03,South,179,0.0,0.0,93,0.00,,,0.00,0.0,meteohub,2016-08-26 01:32:00,
2016-08-25 21:37:00,78.1,75.9,30.03,South,179,0.0,0.0,93,0.00,,,0.00,0.0,meteohub,2016-08-26 01:37:00,
2016-08-25 21:42:00,78.1,75.9,30.03,South,179,0.0,0.0,93,0.00,,,0.00,0.0,meteohub,2016-08-26 01:42:00,
2016-08-25 21:47:00,77.7,75.6,30.03,South,179,0.0,0.0,93,0.00,,,0.00,0.0,meteohub,2016-08-26 01:47:00,
2016-08-25 21:52:00,77.7,75.6,30.03,South,179,0.0,0.0,93,0.00,,,0.00,0.0,meteohub,2016-08-26 01:52:00,
2016-08-25 21:57:00,77.7,75.6,30.03,South,179,0.0,0.0,93,0.00,,,0.00,0.0,meteohub,2016-08-26 01:57:00,